Time,TemperatureF,DewpointF,PressureIn,WindDirection,WindDirectionDegrees,WindSpeedMPH,WindSpeedGustMPH,Humidity,HourlyPrecipIn,Conditions,Clouds,dailyrainin,SoftwareType,DateUTC
2014-02-08 00:21:00,55.0,42.0,30.07,West,264,0.0,0.0,62,0.00,,,-99.99,,2014-02-08 08:21:00,
2014-02-08 00:52:00,56.0,44.0,30.06,WNW,293,0.0,6.0,63,0.00,,,-99.99,,2014-02-08 08:52:00,
2014-02-08 01:22:00,57.0,43.0,30.07,WSW,238,3.0,10.0,59,0.00,,,-99.99,,2014-02-08 09:22:00,
2014-02-08 01:53:00,56.0,42.0,30.07,WNW,300,3.0,11.0,60,0.00,,,-99.99,,2014-02-08 09:53:00,
2014-02-08 02:23:00,57.0,44.0,30.07,NNW,345,4.0,14.0,62,0.00,,,-99.99,,2014-02-08 10:23:00,
2014-02-08 02:53:00,57.0,44.0,30.07,NW,307,6.0,17.0,61,0.00,,,-99.99,,2014-02-08 10:53:00,
2014-02-08 03:21:00,57.0,44.0,30.06,ENE,76,3.0,12.0,61,0.00,,,-99.99,,2014-02-08 11:21:00,
2014-02-08 03:52:00,57.0,43.0,30.06,SW,224,6.0,13.0,60,0.00,,,-99.99,,2014-02-08 11:52:00,
2014-02-08 04:21:00,57.0,43.0,30.06,WSW,250,4.0,10.0,59,0.00,,,-99.99,,2014-02-08 12:21:00,
2014-02-08 04:52:00,57.0,43.0,30.08,West,274,1.0,7.0,59,0.00,,,-99.99,,2014-02-08 12:52:00,
2014-02-08 05:21:00,57.0,43.0,30.08,West,264,2.0,10.0,60,0.00,,,-99.99,,2014-02-08 13:21:00,
2014-02-08 05:52:00,57.0,44.0,30.09,WNW,295,4.0,12.0,61,0.00,,,-99.99,,2014-02-08 13:52:00,
2014-02-08 06:21:00,56.0,43.0,30.10,West,267,4.0,11.0,62,0.00,,,-99.99,,2014-02-08 14:21:00,
2014-02-08 06:52:00,56.0,43.0,30.11,NW,312,3.0,11.0,62,0.00,,,-99.99,,2014-02-08 14:52:00,
2014-02-08 07:21:00,56.0,43.0,30.12,West,264,4.0,18.0,61,0.00,,,-99.99,,2014-02-08 15:21:00,
2014-02-08 07:54:00,57.0,44.0,30.13,WNW,290,3.0,10.0,61,0.00,,,-99.99,,2014-02-08 15:54:00,
2014-02-08 08:23:00,58.0,42.0,30.14,SW,224,0.0,10.0,56,0.00,,,-99.99,,2014-02-08 16:23:00,
2014-02-08 08:53:00,59.0,44.0,30.16,WNW,297,1.0,7.0,57,0.00,,,-99.99,,2014-02-08 16:53:00,
2014-02-08 09:22:00,62.0,44.0,30.16,NW,307,1.0,7.0,51,0.00,,,-99.99,,2014-02-08 17:22:00,
2014-02-08 09:52:00,64.0,43.0,30.18,SW,214,0.0,7.0,47,0.00,,,-99.99,,2014-02-08 17:52:00,
2014-02-08 10:22:00,66.0,42.0,30.19,SE,127,0.0,0.0,42,0.00,,,-99.99,,2014-02-08 18:22:00,
2014-02-08 10:52:00,67.0,43.0,30.18,West,281,0.0,0.0,41,0.00,,,-99.99,,2014-02-08 18:52:00,
2014-02-08 11:21:00,69.0,42.0,30.17,East,83,0.0,4.0,37,0.00,,,-99.99,,2014-02-08 19:21:00,
2014-02-08 11:52:00,69.0,41.0,30.16,East,83,0.0,4.0,36,0.00,,,-99.99,,2014-02-08 19:52:00,
2014-02-08 12:22:00,69.0,41.0,30.15,ESE,117,0.0,2.0,36,0.00,,,-99.99,,2014-02-08 20:22:00,
2014-02-08 12:52:00,71.0,41.0,30.14,West,262,0.0,0.0,34,0.00,,,-99.99,,2014-02-08 20:52:00,
2014-02-08 13:21:00,72.0,41.0,30.12,ENE,69,0.0,1.0,32,0.00,,,-99.99,,2014-02-08 21:21:00,
2014-02-08 13:53:00,73.0,41.0,30.10,East,88,0.0,0.0,32,0.00,,,-99.99,,2014-02-08 21:53:00,
2014-02-08 14:23:00,73.0,41.0,30.10,East,90,0.0,0.0,32,0.00,,,-99.99,,2014-02-08 22:23:00,
2014-02-08 14:53:00,74.0,41.0,30.09,East,88,0.0,0.0,30,0.00,,,-99.99,,2014-02-08 22:53:00,
2014-02-08 15:22:00,74.0,40.0,30.08,East,83,0.0,1.0,29,0.00,,,-99.99,,2014-02-08 23:22:00,
2014-02-08 15:53:00,74.0,40.0,30.08,ESE,112,0.0,3.0,29,0.00,,,-99.99,,2014-02-08 23:53:00,
2014-02-08 16:21:00,73.0,39.0,30.08,SSE,149,1.0,5.0,29,0.00,,,-99.99,,2014-02-09 00:21:00,
2014-02-08 16:52:00,73.0,40.0,30.08,WNW,301,0.0,1.0,30,0.00,,,-99.99,,2014-02-09 00:52:00,
2014-02-08 17:21:00,70.0,38.0,30.09,SE,124,0.0,0.0,31,0.00,,,-99.99,,2014-02-09 01:21:00,
2014-02-08 17:52:00,69.0,40.0,30.08,ESE,115,0.0,0.0,35,0.00,,,-99.99,,2014-02-09 01:52:00,
2014-02-08 18:21:00,66.0,40.0,30.09,SE,127,0.0,0.0,39,0.00,,,-99.99,,2014-02-09 02:21:00,
2014-02-08 18:52:00,64.0,43.0,30.10,SE,127,0.0,0.0,47,0.00,,,-99.99,,2014-02-09 02:52:00,
2014-02-08 19:21:00,62.0,41.0,30.11,SE,127,0.0,0.0,46,0.00,,,-99.99,,2014-02-09 03:21:00,
2014-02-08 19:53:00,63.0,42.0,30.10,East,100,0.0,0.0,46,0.00,,,-99.99,,2014-02-09 03:53:00,
2014-02-08 20:23:00,60.0,41.0,30.10,East,101,0.0,0.0,49,0.00,,,-99.99,,2014-02-09 04:23:00,
2014-02-08 20:53:00,59.0,41.0,30.10,East,100,0.0,0.0,52,0.00,,,-99.99,,2014-02-09 04:53:00,
2014-02-08 21:22:00,58.0,41.0,30.10,East,101,0.0,0.0,53,0.00,,,-99.99,,2014-02-09 05:22:00,
2014-02-08 21:52:00,59.0,41.0,30.11,West,272,1.0,5.0,52,0.00,,,-99.99,,2014-02-09 05:52:00,
2014-02-08 22:23:00,61.0,42.0,30.11,West,281,1.0,7.0,49,0.00,,,-99.99,,2014-02-09 06:23:00,
2014-02-08 22:52:00,59.0,41.0,30.11,NNW,333,0.0,0.0,52,0.00,,,-99.99,,2014-02-09 06:52:00,
2014-02-08 23:21:00,58.0,41.0,30.11,WSW,256,0.0,0.0,54,0.00,,,-99.99,,2014-02-09 07:21:00,
2014-02-08 23:52:00,58.0,41.0,30.11,West,270,0.0,0.0,53,0.00,,,-99.99,,2014-02-09 07:52:00,